Location: Castiglione Fibocchi
(43.5333°N, 11.7667°E)
Time: 14:25:26
(UTC+00:00)

USA 215 - Pass Details

Date: 15 August 2020
Orbit: 1102 x 1106 km, 123.0° (Epoch: 08 August)

Event Time Altitude Azimuth Distance (km) Brightness Sun altitude
Rises 02:49:30 0° 48° (NE) 3,928 8.1 -14.9°
Reaches altitude 10° 02:51:59 10° 48° (NE) 2,967 6.9 -14.6°
Maximum altitude 02:58:32 81° 323° (NW) 1,120 3.3 -13.6°
Enters shadow 03:03:50 17° 237° (WSW) 2,486 4.4 -12.8°
